Location: Cluj-Napoca
(46.7712°N, 23.6236°E)
Time: 13:04:10
(UTC+03:00)

N. Korean satellite - Pass Details

Date: 28 September 2021
Orbit: 450 x 495 km, 97.3° (Epoch: 15 October)

Event Time Altitude Azimuth Distance (km) Brightness Sun altitude
Rises 06:39:39 0° 14° (NNE) 2,535 10.5 -7.8°
Reaches altitude 10° 06:41:42 10° 17° (NNE) 1,660 9.6 -7.4°
Maximum altitude 06:45:16 69° 101° (E) 520 6.9 -6.8°
Drops below altitude 10° 06:48:51 10° 186° (S) 1,670 9.2 -6.2°
Sets 06:50:55 0° 189° (S) 2,552 10.1 -5.8°
